Location: Rounton
(54.4000°N, 1.3500°W)
Time: 13:57:21
(UTC+00:00)

Transit 2A Rocket - Pass Details

Date: 04 December 2021
Orbit: 584 x 918 km, 66.7° (Epoch: 17 January)

Event Time Altitude Azimuth Distance (km) Brightness Sun altitude
Rises 08:03:27 0° 208° (SSW) 3,358 8.5 -1.3°
Reaches altitude 10° 08:05:50 10° 206° (SSW) 2,471 7.8 -1.1°
Maximum altitude 08:11:33 67° 125° (SE) 962 5.9 -0.4°
Drops below altitude 10° 08:17:38 10° 45° (NE) 2,615 7.8 0.3°
Sets 08:20:13 0° 43° (NE) 3,568 8.5 0.5°
